TimeCST,TemperatureF,Dew PointF,Humidity,Sea Level PressureIn,VisibilityMPH,Wind Direction,Wind SpeedMPH,Gust SpeedMPH,PrecipitationIn,Events,Conditions,WindDirDegrees,DateUTC
12:55 AM,36.9,23.0,57,30.32,10.0,NNE,3.5,-,N/A,,Clear,30,2012-12-05 06:55:00
1:55 AM,34.5,23.2,63,30.31,10.0,NNE,5.8,-,N/A,,Clear,30,2012-12-05 07:55:00
2:55 AM,36.5,22.5,57,30.31,10.0,NNE,5.8,-,N/A,,Clear,20,2012-12-05 08:55:00
3:55 AM,39.9,23.0,51,30.30,10.0,North,4.6,-,N/A,,Clear,350,2012-12-05 09:55:00
4:55 AM,35.4,23.2,61,30.30,10.0,Calm,Calm,-,N/A,,Clear,0,2012-12-05 10:55:00
5:55 AM,34.0,22.6,63,30.30,10.0,Calm,Calm,-,N/A,,Clear,0,2012-12-05 11:55:00
6:55 AM,32.7,22.8,67,30.32,10.0,Calm,Calm,-,N/A,,Clear,0,2012-12-05 12:55:00
8:55 AM,43.5,25.5,49,30.31,10.0,Calm,Calm,-,N/A,,Clear,0,2012-12-05 14:55:00
9:55 AM,49.5,26.4,41,30.30,10.0,SSE,4.6,-,N/A,,Clear,160,2012-12-05 15:55:00
10:55 AM,54.5,29.7,39,30.28,10.0,SSE,6.9,-,N/A,,Clear,160,2012-12-05 16:55:00
11:55 AM,58.3,29.7,34,30.24,10.0,South,8.1,-,N/A,,Clear,170,2012-12-05 17:55:00
12:55 PM,60.1,26.8,28,30.19,10.0,SSE,6.9,-,N/A,,Clear,160,2012-12-05 18:55:00
1:55 PM,61.5,27.0,27,30.14,10.0,South,5.8,-,N/A,,Clear,170,2012-12-05 19:55:00
2:55 PM,62.8,25.0,24,30.10,10.0,South,5.8,-,N/A,,Clear,170,2012-12-05 20:55:00
3:55 PM,61.9,25.0,25,30.07,10.0,SE,10.4,-,N/A,,Clear,140,2012-12-05 21:55:00
4:55 PM,60.8,26.4,27,30.06,10.0,SE,9.2,-,N/A,,Clear,140,2012-12-05 22:55:00
5:55 PM,51.3,26.6,38,30.06,10.0,East,9.2,-,N/A,,Clear,100,2012-12-05 23:55:00
6:55 PM,49.5,26.8,41,30.05,10.0,ESE,9.2,-,N/A,,Clear,110,2012-12-06 00:55:00
7:55 PM,45.0,26.4,48,30.05,10.0,ESE,6.9,-,N/A,,Clear,110,2012-12-06 01:55:00
8:55 PM,43.9,25.9,49,30.02,10.0,East,3.5,-,N/A,,Clear,90,2012-12-06 02:55:00
9:55 PM,42.8,27.0,54,30.00,10.0,ESE,8.1,-,N/A,,Clear,120,2012-12-06 03:55:00
10:55 PM,40.8,28.0,60,29.99,10.0,ESE,10.4,-,N/A,,Clear,120,2012-12-06 04:55:00
11:55 PM,42.4,30.0,61,29.97,10.0,ESE,9.2,-,N/A,,Clear,120,2012-12-06 05:55:00